Location: *
(51.1248°S, 108.4023°W)
Time: 04:39:05
(UTC+00:00)

Cosmos 2278 Rocket - Pass Details

Date: 30 October 2021
Orbit: 841 x 845 km, 71.0° (Epoch: 01 December)

Event Time Altitude Azimuth Distance (km) Brightness Sun altitude
Exits shadow 05:03:28 40° 34° (NNE) 1,230 2.5 -20.4°
Maximum altitude 05:04:44 47° 69° (ENE) 1,117 2.5 -20.5°
Drops below altitude 10° 05:10:12 10° 141° (SE) 2,497 4.9 -21.0°
Sets 05:12:44 0° 146° (SSE) 3,439 5.8 -21.1°
